TITAN 3C TRANSTAGE R/B, 3432

Orbit data source: Space-Track

TITAN 3C TRANSTAGE R/B, 3432 is space debris in GEO originally from a launch on Thu, 26 Sep 1968 UTC launched from the Air Force Eastern Test Range (AFETR). Debris objects in space refer to the collection of defunct objects orbiting the Earth. Examples of debris include non-operational satellites, rocket bodies, and fragments generated from explosions, collisions, or faulty payload assembly.

Loading next visibility...
Identifier
3432, 1968-081E
Orbit
GEO
Last TLE update
14 hours ago
Origin
Manufacturer
Martin Marietta
Mission
Spacecraft
Bus & Motor
TRANSTAGE, Unknown motor
Mass
~1,950 kg wet, ~1,950 kg dry
Launch date (UTC)
1968-09-26 (57 years ago)
Launch vehicle
Unknown
Launch site
Air Force Eastern Test Range (AFETR)
Object type
Payload
Rocket body
Debris
Shape & HBR
Cyl + 2 Nozzle, 2.3 m
Radar Cross Section
14.974 m², Large (>1 m²)

Expand to show TLE details & history

TLE from 14 hours ago
0 TITAN 3C TRANSTAGE R/B
1 03432U 68081E   25199.38567017 -.00000029  00000-0  00000-0 0  9990
2 03432   1.3348  35.8938 0093806 285.2587 331.7083  1.01519010118599
Epoch: 2025-07-18T09:15Z
TLE epoch observation values (Epoch: 2025-07-18T09:15:21.902Z)
Latitude
-1.31513°
Longitude
-142.93018°
Altitude
35,094.217 km
Speed
3.113 km/s
True Right ascension
19h 29m 23s
True Declination
-1° 18' 50"
Sunlit
Object was in daylight at epoch
Visualization orbit readout
Latitude
1.3033°
Longitude
66.54982°
Altitude
35,832.862 km
Speed
3.059 km/s
Apparent Right ascension
09h 10m 35s
Apparent Declination
-4° 38' 52"
Sunlit
Object is in daylight
Visualization observer readout
Local Sidereal Time
11:46:16
Azimuth
228.207° WSW
Elevation
32.872°
Doppler factor
1
Orbital elements
Apogee altitude
35,833.91 km
Perigee altitude
35,049.321 km
Semi-major axis
41,819.752 km
Eccentricity
0.00938
Inclination
1.3348°
RAAN
35.8938°
Arg. of periapsis
285.2587°
True anomaly
331.19352°
Mean anomaly
331.7083°
Eccentric anomaly
331.45144°
Mean motion
0.25379 °/min
Orbital period
1,418.51 mins
BSTAR
0
Loading maneuver chart data...
Loading SW <> Apogee altitude chart data...
|